{"data":{"norad_id":54858,"intl_designator":"2022-177AQ","name":"STARLINK-5407","alt_names":[],"object_type":"PAYLOAD","status":"ACTIVE","operator":null,"country":"US","launch_date":"2022-12-28","launch_site_code":"AFETR","launch_vehicle":null,"mission":null,"orbit_class":"UNKNOWN","rcs_meters":null,"size_class":null,"mass_kg":null,"dimensions":null,"purposes":["comms"],"wikipedia_slug":null,"has_3d_model":false,"image_url":null,"decayed_at":null,"tle_current":{"epoch":"2026-09-19T07:19:08.533632Z","epoch_age_seconds":196594,"freshness":"STALE","line1":"1 54858U 22177AQ  26262.30495988  .00018750  00000+0  69124-3 0  9998","line2":"2 54858  43.0042 107.9624 0001839 218.1495 141.9227 15.27479198206709","mean_motion":15.27479198,"eccentricity":0.0001839,"inclination_deg":43.0042,"raan_deg":107.9624,"arg_perigee_deg":218.1495,"mean_anomaly_deg":141.9227,"bstar":0.00069124,"rev_number":20670,"period_min":94.272969601515,"perigee_km":482.08912245598,"apogee_km":484.61277772403,"semimajor_km":6861.48795009,"source":"CELESTRAK","updated_at":"2026-09-21T09:00:33.159279Z"}}}